Location: B
(0.0000°N, 0.0000°E)
Time: 03:09:26
(UTC+01:00)

Daily predictions for brighter satellites

Satellite Brightness Start Highest point End
(mag) Time Altitude Azimuth Time Altitude Azimuth Time Altitude Azimuth
Cosmos 2285 Rocket 4.4 04:49:42 62° ESE 04:49:42 62° ESE 04:56:00 10° NNE
Cosmos 2237 Rocket 3.0 04:51:03 48° E 04:51:03 48° E 04:56:03 10° NNE
ARIANE DEB (SYLDA) 3.7 04:52:46 45° SSE 04:52:46 45° SSE 04:55:55 10° ESE
Ariane H10 3.5 05:01:20 70° ENE 05:01:20 70° ENE 05:13:27 10° E
NOSS 0 Rocket 4.1 05:05:55 62° N 05:05:55 62° N 05:10:58 10° NNE
Ariane 44P Rocket 3.9 05:05:13 67° WNW 05:06:15 80° N 05:42:41 10° E
Cosmos 2333 Rocket 3.3 05:08:59 32° N 05:08:59 32° N 05:11:54 10° N
CZ-3A R/B 2.2 05:12:50 64° SSE 05:12:55 65° SSE 05:25:45 10° ENE
CZ-3 R/B 4.5 04:54:21 12° SW 05:13:01 26° S 05:20:28 10° SE
Cosmos 2184 Rocket 3.8 05:08:15 10° N 05:14:30 76° W 05:20:50 10° S
Feng Yun 1-1 Rocket 4.2 05:10:14 10° NNE 05:15:55 81° ESE 05:20:25 16° S
Cosmos 405 Rocket 4.0 05:17:17 16° SSE 05:20:14 42° E 05:24:05 10° NNE
GPS 2-15 Rocket1 3.7 05:21:30 48° NNE 05:21:30 48° NNE 05:25:13 10° ENE
Meteor 1-12 Rocket 4.2 05:16:39 10° N 05:22:21 85° E 05:28:13 10° S
Cosmos 1763 Rocket 3.8 05:18:50 14° S 05:23:10 61° ESE 05:28:08 10° NNE
Cosmos 2263 Rocket 2.1 05:20:13 28° N 05:23:17 83° ENE 05:28:51 10° SSE
Cosmos 1025 Rocket 2.9 05:29:12 62° S 05:29:54 86° E 05:34:15 10° N
STPSAT 2 (USA 217) 4.4 05:30:23 78° NW 05:30:39 84° WSW 05:35:13 10° SSE
Cosmos 1777 Rocket 4.3 05:27:49 10° N 05:33:03 68° ENE 05:38:17 10° SSE
Cosmos 841 Rocket 3.8 05:29:47 10° S 05:34:57 64° ESE 05:40:03 10° NNE
Okean-O 3.9 05:32:16 10° N 05:34:27 27° NNW 05:34:27 27° NNW
BLOCK DM-SL R/B 1.3 05:36:32 71° W 05:36:55 89° N 05:47:17 10° E
Aurora 2 Rocket 2.9 05:37:53 52° SW 05:38:27 55° SSW 05:44:29 10° SE
EO 1 Del DPAF 3.8 05:35:12 10° S 05:37:59 45° S 05:37:59 45° S
Cosmos 1814 Rocket 4.1 05:40:32 47° WSW 05:41:13 50° WNW 05:46:15 10° N
Cosmos 2181 Rocket 4.0 05:38:03 10° SSW 05:43:55 49° W 05:49:51 10° NNW
Lacrosse 5 3.6 05:40:35 10° N 05:45:01 31° ENE 05:49:29 10° ESE
SL-16 R/B 2.6 05:39:47 10° S 05:45:22 63° ESE 05:50:56 10° NNE
Ariane H10-3 3.2 05:45:10 33° SSW 05:45:55 38° S 05:53:36 10° ESE
Cosmos 2084 Rocket 3.3 05:45:16 52° WNW 05:46:02 64° WSW 05:50:22 10° SSE
NOAA 6 3.9 05:41:15 10° N 05:46:20 76° WNW 05:51:28 10° SSW
Cosmos 2154 Rocket 3.9 05:41:54 10° N 05:48:04 79° W 05:54:20 10° S
Cosmos 1666 4.2 05:47:37 10° NNE 05:51:15 39° E 05:54:54 10° SSE
Cosmos 1743 2.6 05:49:03 10° N 05:52:51 89° E 05:56:41 10° S
SEDSat Delta rocket 4.3 05:51:12 16° SSW 05:54:36 38° SSE 05:58:42 10° E
Abrixas rocket 2.9 05:56:58 21° SSW 05:58:54 52° SE 06:02:04 10° NE
Cosmos 1346 4.2 05:59:52 10° SSE 06:02:35 42° E 06:05:17 10° NNE
NOSS 3-1 (A) 3.5 05:59:41 17° SW 06:03:45 44° WNW 06:09:07 10° N
Radarsat Rocket 4.0 05:58:39 10° N 06:04:21 60° WNW 06:10:29 10° SSW
NOSS 3-1 (C) 4.1 06:06:01 22° W 06:07:38 26° WNW 06:12:14 10° N
DELTA 2 R/B (2) 4.3 06:07:04 20° WNW 06:09:41 65° SW 06:12:20 10° SE
Thor Agena Rocket 4.4 06:05:05 10° SSE 06:10:05 52° ENE 06:14:59 10° N
SL-8 Rocket 4.4 06:06:27 10° N 06:12:32 65° E 06:18:37 10° SSE
Cosmos 1437 4.0 06:13:18 23° WNW 06:13:18 23° WNW 06:15:37 10° NNW
Lacrosse 4 Rocket 2.9 06:09:24 10° N 06:13:29 42° ENE 06:17:39 10° SE
SL-12 R/B (Aux Motor) 4.2 06:13:28 14° NNW 06:15:10 68° NE 06:19:00 10° SE
CZ-2C R/B 4.5 06:11:23 10° SSW 06:15:32 31° WSW 06:19:37 10° NW
Atlas Centaur 2 2.5 06:12:42 10° SW 06:16:23 34° SSE 06:19:42 10° E
CZ-2C R/B 4.1 06:13:59 10° NE 06:18:43 38° ESE 06:23:20 10° S
PAYLOAD A 4.4 06:16:50 10° NNE 06:22:11 73° ESE 06:27:37 10° S
GPS 2-05 Rocket1 4.4 06:21:19 15° WSW 06:22:24 18° SW 06:24:41 10° S
GPS 2-17 Rocket1 3.2 06:20:15 13° WSW 06:24:20 68° SSE 06:28:45 10° ENE
CSL-04 Rocket 3.8 06:19:14 10° NNE 06:24:47 83° ESE 06:30:19 10° S
Cosmos 2341 Rocket 4.2 06:19:23 10° NNW 06:25:18 48° W 06:31:14 10° SSW
CZ-3B DEB 2.7 06:23:55 14° WNW 06:26:43 31° SW 06:33:00 10° SSE
Iridium 2 3.6 06:24:04 10° N 06:27:52 71° W 06:31:43 10° S
GPS 2-12 Rocket1 4.3 06:24:08 10° NW 06:28:12 35° NNE 06:32:22 10° E
Cosmos 304 Rocket 4.3 06:27:14 10° S 06:31:58 65° ESE 06:36:40 10° NNE
Meteor 2-9 Rocket 4.1 06:27:22 10° N 06:32:51 77° W 06:38:13 10° S
Cosmos 2237 Rocket 3.9 06:33:10 10° W 06:34:24 11° WNW 06:35:39 10° WNW
USA 234 3.9 06:28:40 10° NE 06:35:03 59° SE 06:41:27 10° SSW
Cosmos 2218 Rocket 4.1 06:28:54 10° N 06:35:13 88° E 06:41:29 10° S
Meteor 1-15 Rocket 4.5 06:35:27 10° N 06:41:22 86° E 06:47:15 10° S
Cosmos 1844 Rocket 2.9 06:36:09 10° N 06:41:41 78° ENE 06:47:15 10° SSE
Meteor 1-28 Rocket 3.8 06:38:47 10° SSE 06:42:30 62° E 06:46:14 10° N
OAO 3 Rocket 3.9 06:39:43 10° WSW 06:43:59 34° NW 06:48:13 10° NNE
